30/04/2024 12:45:00,0.263
30/04/2024 13:00:00,0.262
30/04/2024 13:15:00,0.264
30/04/2024 13:30:00,0.262
30/04/2024 13:45:00,0.263
30/04/2024 14:00:00,0.262
30/04/2024 14:15:00,0.261
30/04/2024 14:30:00,0.261
30/04/2024 14:45:00,0.259
30/04/2024 15:00:00,0.261
30/04/2024 15:15:00,0.26
30/04/2024 15:30:00,0.259
30/04/2024 15:45:00,0.258
30/04/2024 16:00:00,0.259
30/04/2024 16:15:00,0.259
30/04/2024 16:30:00,0.257
30/04/2024 16:45:00,0.257
30/04/2024 17:00:00,0.257
30/04/2024 17:15:00,0.257
30/04/2024 17:30:00,0.256
30/04/2024 17:45:00,0.257
30/04/2024 18:00:00,0.257
30/04/2024 18:15:00,0.255
30/04/2024 18:30:00,0.257
30/04/2024 18:45:00,0.255
30/04/2024 19:00:00,0.255
30/04/2024 19:15:00,0.255
30/04/2024 19:30:00,0.255
30/04/2024 19:45:00,0.255
30/04/2024 20:00:00,0.255
30/04/2024 20:15:00,0.254
30/04/2024 20:30:00,0.255
30/04/2024 20:45:00,0.255
30/04/2024 21:00:00,0.255
30/04/2024 21:15:00,0.253
30/04/2024 21:30:00,0.255
30/04/2024 21:45:00,0.255
30/04/2024 22:00:00,0.255
30/04/2024 22:15:00,0.255
30/04/2024 22:30:00,0.255
30/04/2024 22:45:00,0.255
30/04/2024 23:00:00,0.255
30/04/2024 23:15:00,0.255
30/04/2024 23:30:00,0.255
30/04/2024 23:45:00,0.255
01/05/2024 00:00:00,0.255
01/05/2024 00:15:00,0.255
01/05/2024 00:30:00,0.255
01/05/2024 00:45:00,0.254
01/05/2024 01:00:00,0.255
01/05/2024 01:15:00,0.254
01/05/2024 01:30:00,0.254
01/05/2024 01:45:00,0.255
01/05/2024 02:00:00,0.253
01/05/2024 02:15:00,0.254
01/05/2024 02:30:00,0.255
01/05/2024 02:45:00,0.255
01/05/2024 03:00:00,0.255
01/05/2024 03:15:00,0.254
01/05/2024 03:30:00,0.254
01/05/2024 03:45:00,0.254
01/05/2024 04:00:00,0.253
01/05/2024 04:15:00,0.254
01/05/2024 04:30:00,0.253
01/05/2024 04:45:00,0.252
01/05/2024 05:00:00,0.252
01/05/2024 05:15:00,0.252
01/05/2024 05:30:00,0.251
01/05/2024 05:45:00,0.252
01/05/2024 06:00:00,0.251
01/05/2024 06:15:00,0.251
01/05/2024 06:30:00,0.251
01/05/2024 06:45:00,0.251
01/05/2024 07:00:00,0.25
01/05/2024 07:15:00,0.25
01/05/2024 07:30:00,0.25
01/05/2024 07:45:00,0.25
01/05/2024 08:00:00,0.25
01/05/2024 08:15:00,0.25
01/05/2024 08:30:00,0.25
01/05/2024 08:45:00,0.249
01/05/2024 09:00:00,0.249
01/05/2024 09:15:00,0.249
01/05/2024 09:30:00,0.249
01/05/2024 09:45:00,0.249
01/05/2024 10:00:00,0.249
01/05/2024 10:15:00,0.248
01/05/2024 10:30:00,0.249
01/05/2024 10:45:00,0.248
01/05/2024 11:00:00,0.247
01/05/2024 11:15:00,0.248
01/05/2024 11:30:00,0.248
01/05/2024 11:45:00,0.248
01/05/2024 12:00:00,0.248
01/05/2024 12:15:00,0.246
01/05/2024 12:30:00,0.248
01/05/2024 12:45:00,0.246
01/05/2024 13:00:00,0.247
01/05/2024 13:15:00,0.247
01/05/2024 13:30:00,0.246
01/05/2024 13:45:00,0.247
01/05/2024 14:00:00,0.246
01/05/2024 14:15:00,0.245
01/05/2024 14:30:00,0.245
01/05/2024 14:45:00,0.244
01/05/2024 15:00:00,0.245
01/05/2024 15:15:00,0.244
01/05/2024 15:30:00,0.244
01/05/2024 15:45:00,0.244
01/05/2024 16:00:00,0.245
01/05/2024 16:15:00,0.245
01/05/2024 16:30:00,0.244
01/05/2024 16:45:00,0.245
01/05/2024 17:00:00,0.244
01/05/2024 17:15:00,0.245
01/05/2024 17:30:00,0.244
01/05/2024 17:45:00,0.244
01/05/2024 18:00:00,0.244
01/05/2024 18:15:00,0.245
01/05/2024 18:30:00,0.245
01/05/2024 18:45:00,0.245
01/05/2024 19:00:00,0.247
01/05/2024 19:15:00,0.247
01/05/2024 19:30:00,0.247
01/05/2024 19:45:00,0.247
01/05/2024 20:00:00,0.248
01/05/2024 20:15:00,0.249
01/05/2024 20:30:00,0.249
01/05/2024 20:45:00,0.25
01/05/2024 21:00:00,0.25
01/05/2024 21:15:00,0.25
01/05/2024 21:30:00,0.25
01/05/2024 21:45:00,0.25
01/05/2024 22:00:00,0.249
01/05/2024 22:15:00,0.25
01/05/2024 22:30:00,0.251
01/05/2024 22:45:00,0.25
01/05/2024 23:00:00,0.251
01/05/2024 23:15:00,0.25
01/05/2024 23:30:00,0.25
01/05/2024 23:45:00,0.249
02/05/2024 00:00:00,0.25
02/05/2024 00:15:00,0.249
02/05/2024 00:30:00,0.25
02/05/2024 00:45:00,0.249
02/05/2024 01:00:00,0.25
02/05/2024 01:15:00,0.25
02/05/2024 01:30:00,0.25
02/05/2024 01:45:00,0.249
02/05/2024 02:00:00,0.25
02/05/2024 02:15:00,0.249
02/05/2024 02:30:00,0.249
02/05/2024 02:45:00,0.249
02/05/2024 03:00:00,0.249
02/05/2024 03:15:00,0.25
02/05/2024 03:30:00,0.249
02/05/2024 03:45:00,0.248
02/05/2024 04:00:00,0.249
02/05/2024 04:15:00,0.25
02/05/2024 04:30:00,0.249
02/05/2024 04:45:00,0.249
02/05/2024 05:00:00,0.249
02/05/2024 05:15:00,0.25
02/05/2024 05:30:00,0.249
02/05/2024 05:45:00,0.249
02/05/2024 06:00:00,0.248
02/05/2024 06:15:00,0.248
02/05/2024 06:30:00,0.248
02/05/2024 06:45:00,0.249
02/05/2024 07:00:00,0.248
02/05/2024 07:15:00,0.248
02/05/2024 07:30:00,0.246
02/05/2024 07:45:00,0.247
02/05/2024 08:00:00,0.247
02/05/2024 08:15:00,0.246
02/05/2024 08:30:00,0.245
02/05/2024 08:45:00,0.247
02/05/2024 09:00:00,0.246
02/05/2024 09:15:00,0.245
02/05/2024 09:30:00,0.245
02/05/2024 09:45:00,0.245
02/05/2024 10:00:00,0.245
02/05/2024 10:15:00,0.245
02/05/2024 10:30:00,0.245
02/05/2024 10:45:00,0.245
02/05/2024 11:00:00,0.244
02/05/2024 11:15:00,0.245
02/05/2024 11:30:00,0.245
02/05/2024 11:45:00,0.245
02/05/2024 12:00:00,0.245
02/05/2024 12:15:00,0.245
02/05/2024 12:30:00,0.243
02/05/2024 12:45:00,0.245
02/05/2024 13:00:00,0.243
02/05/2024 13:15:00,0.243
02/05/2024 13:30:00,0.243
02/05/2024 13:45:00,0.243
02/05/2024 14:00:00,0.243
02/05/2024 14:15:00,0.243
02/05/2024 14:30:00,0.243
02/05/2024 14:45:00,0.243
02/05/2024 15:00:00,0.243
02/05/2024 15:15:00,0.242
02/05/2024 15:30:00,0.242
02/05/2024 15:45:00,0.242
02/05/2024 16:00:00,0.241
02/05/2024 16:15:00,0.241
02/05/2024 16:30:00,0.24
02/05/2024 16:45:00,0.241
02/05/2024 17:00:00,0.241
02/05/2024 17:15:00,0.241
02/05/2024 17:30:00,0.242
02/05/2024 17:45:00,0.241
02/05/2024 18:00:00,0.241
02/05/2024 18:15:00,0.243
02/05/2024 18:30:00,0.243
02/05/2024 18:45:00,0.244
02/05/2024 19:00:00,0.244
02/05/2024 19:15:00,0.244
02/05/2024 19:30:00,0.245
02/05/2024 19:45:00,0.245
02/05/2024 20:00:00,0.246
02/05/2024 20:15:00,0.245
02/05/2024 20:30:00,0.247
02/05/2024 20:45:00,0.246
02/05/2024 21:00:00,0.247
02/05/2024 21:15:00,0.248
02/05/2024 21:30:00,0.248
02/05/2024 21:45:00,0.248
02/05/2024 22:00:00,0.249
02/05/2024 22:15:00,0.249
02/05/2024 22:30:00,0.25
02/05/2024 22:45:00,0.25
02/05/2024 23:00:00,0.25
02/05/2024 23:15:00,0.25
02/05/2024 23:30:00,0.249
02/05/2024 23:45:00,0.249
03/05/2024 00:00:00,0.249
03/05/2024 00:15:00,0.249
03/05/2024 00:30:00,0.248
03/05/2024 00:45:00,0.249
03/05/2024 01:00:00,0.247
03/05/2024 01:15:00,0.247
03/05/2024 01:30:00,0.247
03/05/2024 01:45:00,0.247
03/05/2024 02:00:00,0.248
03/05/2024 02:15:00,0.245
03/05/2024 02:30:00,0.245
03/05/2024 02:45:00,0.245
03/05/2024 03:00:00,0.245
03/05/2024 03:15:00,0.245
03/05/2024 03:30:00,0.243
03/05/2024 03:45:00,0.243
03/05/2024 04:00:00,0.243
03/05/2024 04:15:00,0.243
03/05/2024 04:30:00,0.242
03/05/2024 04:45:00,0.242
03/05/2024 05:00:00,0.241
03/05/2024 05:15:00,0.241
03/05/2024 05:30:00,0.24
03/05/2024 05:45:00,0.24
03/05/2024 06:00:00,0.24
03/05/2024 06:15:00,0.239
03/05/2024 06:30:00,0.239
03/05/2024 06:45:00,0.238
03/05/2024 07:00:00,0.238
03/05/2024 07:15:00,0.237
03/05/2024 07:30:00,0.237
03/05/2024 07:45:00,0.236
03/05/2024 08:00:00,0.237
03/05/2024 08:15:00,0.237
03/05/2024 08:30:00,0.236
03/05/2024 08:45:00,0.236
03/05/2024 09:00:00,0.236
03/05/2024 09:15:00,0.236
03/05/2024 09:30:00,0.235
03/05/2024 09:45:00,0.236
03/05/2024 10:00:00,0.235
03/05/2024 10:15:00,0.235
03/05/2024 10:30:00,0.235
03/05/2024 10:45:00,0.235
03/05/2024 11:00:00,0.235
03/05/2024 11:15:00,0.234
03/05/2024 11:30:00,0.235
03/05/2024 11:45:00,0.234
03/05/2024 12:00:00,0.234
03/05/2024 12:15:00,0.235
03/05/2024 12:30:00,0.235
03/05/2024 12:45:00,0.234
03/05/2024 13:00:00,0.234
03/05/2024 13:15:00,0.234
03/05/2024 13:30:00,0.234
03/05/2024 13:45:00,0.233
03/05/2024 14:00:00,0.233
03/05/2024 14:15:00,0.233
03/05/2024 14:30:00,0.233
03/05/2024 14:45:00,0.231
03/05/2024 15:00:00,0.232
03/05/2024 15:15:00,0.231
03/05/2024 15:30:00,0.231
03/05/2024 15:45:00,0.231
03/05/2024 16:00:00,0.23
03/05/2024 16:15:00,0.23
03/05/2024 16:30:00,0.23
03/05/2024 16:45:00,0.23
03/05/2024 17:00:00,0.229
03/05/2024 17:15:00,0.23
03/05/2024 17:30:00,0.23
03/05/2024 17:45:00,0.23
03/05/2024 18:00:00,0.229
03/05/2024 18:15:00,0.231
03/05/2024 18:30:00,0.231
03/05/2024 18:45:00,0.231
03/05/2024 19:00:00,0.232
03/05/2024 19:15:00,0.234
03/05/2024 19:30:00,0.234
03/05/2024 19:45:00,0.233
03/05/2024 20:00:00,0.234
03/05/2024 20:15:00,0.235
03/05/2024 20:30:00,0.234
03/05/2024 20:45:00,0.235
03/05/2024 21:00:00,0.236
03/05/2024 21:15:00,0.235
03/05/2024 21:30:00,0.236
03/05/2024 21:45:00,0.237
03/05/2024 22:00:00,0.237
03/05/2024 22:15:00,0.238
03/05/2024 22:30:00,0.237
03/05/2024 22:45:00,0.239
03/05/2024 23:00:00,0.238
03/05/2024 23:15:00,0.238
03/05/2024 23:30:00,0.239
03/05/2024 23:45:00,0.238
04/05/2024 00:00:00,0.238
